,,Stat6,,Stat2,,Stat8,,Stat9,,Stat10,,Wind1,,Wind1,
time,status,PA1M_AVG,status,PR1M_SUM,status,RH1M_AVG,status,SR1M_AVG,status,TA1M_AVG,status,W1dAve1m,status,W1sAve1m,
2006-03-23, 00:00:00,VALID,916.346,VALID,0,VALID,100,VALID,0,VALID,20.2815,VALID,345,VALID,2.35084,
2006-03-23, 00:01:00,VALID,916.418,VALID,0,VALID,100,VALID,0.0169808,VALID,18.6628,VALID,306,VALID,1.18288,
2006-03-23, 00:02:00,VALID,916.458,VALID,0,VALID,100,VALID,0,VALID,19.3497,VALID,73,VALID,0.627486,
2006-03-23, 00:03:00,VALID,916.408,VALID,0,VALID,100,VALID,0.0339617,VALID,19.6981,VALID,51,VALID,2.14248,
2006-03-23, 00:04:00,VALID,916.439,VALID,0,VALID,100,VALID,0.0169808,VALID,19.3871,VALID,82,VALID,1.38027,
2006-03-23, 00:05:00,VALID,916.39,VALID,0,VALID,100,VALID,0,VALID,19.2287,VALID,53,VALID,1.67645,
2006-03-23, 00:06:00,VALID,916.438,VALID,0.2,VALID,100,VALID,0,VALID,19.0266,VALID,22,VALID,1.8045,
2006-03-23, 00:07:00,VALID,916.419,VALID,0,VALID,100,VALID,0.0169808,VALID,19.6947,VALID,86,VALID,0.998857,
2006-03-23, 00:08:00,VALID,916.428,VALID,0,VALID,100,VALID,0.0169808,VALID,18.7514,VALID,36,VALID,0.954942,
2006-03-23, 00:09:00,VALID,916.455,VALID,0,VALID,100,VALID,-0.0339617,VALID,18.9025,VALID,108,VALID,0.440549,
2006-03-23, 00:10:00,VALID,916.456,VALID,0,VALID,100,VALID,-0.0679233,VALID,19.5462,VALID,181,VALID,0.664063,
2006-03-23, 00:11:00,VALID,916.453,VALID,0,VALID,100,VALID,-0.0679233,VALID,18.3079,VALID,205,VALID,0.271151,
2006-03-23, 00:12:00,VALID,916.43,VALID,0,VALID,100,VALID,-0.0509425,VALID,19.1577,VALID,170,VALID,0.492969,
2006-03-23, 00:13:00,VALID,916.386,VALID,0,VALID,100,VALID,-0.0679233,VALID,18.8189,VALID,92,VALID,0.916667,
2006-03-23, 00:14:00,VALID,916.38,VALID,0,VALID,100,VALID,-0.0509425,VALID,19.252,VALID,58,VALID,1.43445,
2006-03-23, 00:15:00,VALID,916.364,VALID,0,VALID,100,VALID,-0.0169808,VALID,19.9021,VALID,360,VALID,1.13681,
2006-03-23, 00:16:00,VALID,916.33,VALID,0,VALID,100,VALID,-0.0509425,VALID,18.7647,VALID,355,VALID,0.712358,
2006-03-23, 00:17:00,VALID,916.295,VALID,0,VALID,100,VALID,-0.0849042,VALID,18.2467,VALID,34,VALID,0.977325,
2006-03-23, 00:18:00,VALID,916.289,VALID,0,VALID,100,VALID,-0.0679233,VALID,19.5033,VALID,356,VALID,1.14648,
2006-03-23, 00:19:00,VALID,916.294,VALID,0,VALID,100,VALID,-0.0509425,VALID,18.904,VALID,259,VALID,0.753089,
2006-03-23, 00:20:00,VALID,916.258,VALID,0,VALID,100,VALID,-0.0679233,VALID,19.2698,VALID,331,VALID,1.70605,
2006-03-23, 00:21:00,VALID,916.225,VALID,0,VALID,100,VALID,-0.0679233,VALID,18.8923,VALID,180,VALID,0.697027,
2006-03-23, 00:22:00,VALID,916.188,VALID,0,VALID,100,VALID,-0.0339617,VALID,20.5605,VALID,161,VALID,0.464844,
2006-03-23, 00:23:00,VALID,916.171,VALID,0,VALID,100,VALID,-0.0849042,VALID,19.1567,VALID,120,VALID,0.712612,
2006-03-23, 00:24:00,VALID,916.148,VALID,0,VALID,100,VALID,0.0169808,VALID,18.7933,VALID,164,VALID,0.334339,
2006-03-23, 00:25:00,VALID,916.099,VALID,0,VALID,100,VALID,0,VALID,19.409,VALID,97,VALID,0.733467,
2006-03-23, 00:26:00,VALID,916.074,VALID,0,VALID,100,VALID,-0.0849042,VALID,19.7593,VALID,18,VALID,1.96932,
2006-03-23, 00:27:00,VALID,916.035,VALID,0,VALID,100,VALID,-0.0849042,VALID,18.9737,VALID,23,VALID,1.35366,
2006-03-23, 00:28:00,VALID,915.985,VALID,0,VALID,100,VALID,0.0169808,VALID,18.4119,VALID,25,VALID,1.16243,
2006-03-23, 00:29:00,VALID,915.992,VALID,0,VALID,100,VALID,-0.101885,VALID,19.3472,VALID,325,VALID,0.949963,
2006-03-23, 00:30:00,VALID,915.959,VALID,0,VALID,100,VALID,-0.101885,VALID,19.2265,VALID,360,VALID,0.662059,
2006-03-23, 00:31:00,VALID,915.929,VALID,0,VALID,100,VALID,-0.0169808,VALID,19.2594,VALID,77,VALID,1.13224,
2006-03-23, 00:32:00,VALID,915.936,VALID,0,VALID,100,VALID,-0.0849042,VALID,18.9433,VALID,16,VALID,1.81108,
2006-03-23, 00:33:00,VALID,915.917,VALID,0,VALID,100,VALID,-0.101885,VALID,18.3051,VALID,305,VALID,2.07386,
2006-03-23, 00:34:00,VALID,915.906,VALID,0,VALID,100,VALID,-0.0849042,VALID,18.978,VALID,11,VALID,1.12808,
2006-03-23, 00:35:00,VALID,915.881,VALID,0,VALID,100,VALID,-0.101885,VALID,19.2659,VALID,21,VALID,2.29288,
2006-03-23, 00:36:00,VALID,915.822,VALID,0,VALID,100,VALID,-0.0679233,VALID,18.1668,VALID,320,VALID,1.90988,
2006-03-23, 00:37:00,VALID,915.829,VALID,0,VALID,100,VALID,0,VALID,18.9274,VALID,334,VALID,1.62862,
2006-03-23, 00:38:00,VALID,915.793,VALID,0,VALID,100,VALID,-0.0339617,VALID,19.3886,VALID,220,VALID,0.623611,
2006-03-23, 00:39:00,VALID,915.758,VALID,0,VALID,100,VALID,-0.0169808,VALID,19.4851,VALID,215,VALID,1.34859,
2006-03-23, 00:40:00,VALID,915.741,VALID,0,VALID,100,VALID,-0.0679233,VALID,19.0499,VALID,4,VALID,1.77134,
2006-03-23, 00:41:00,VALID,915.719,VALID,0.2,VALID,100,VALID,0,VALID,19.5008,VALID,306,VALID,1.29288,
2006-03-23, 00:42:00,VALID,915.691,VALID,0,VALID,100,VALID,0.0169808,VALID,18.653,VALID,283,VALID,0.937682,
2006-03-23, 00:43:00,VALID,915.621,VALID,0,VALID,100,VALID,0,VALID,19.5823,VALID,21,VALID,1.59785,
2006-03-23, 00:44:00,VALID,915.583,VALID,0,VALID,100,VALID,0,VALID,18.513,VALID,356,VALID,1.47311,
2006-03-23, 00:45:00,VALID,915.575,VALID,0,VALID,100,VALID,0.0169808,VALID,19.359,VALID,98,VALID,0.75,
2006-03-23, 00:46:00,VALID,915.564,VALID,0,VALID,100,VALID,0.0339617,VALID,18.3686,VALID,160,VALID,0.358398,
2006-03-23, 00:47:00,VALID,915.504,VALID,0,VALID,100,VALID,0,VALID,18.9715,VALID,143,VALID,0.800872,
2006-03-23, 00:48:00,VALID,915.504,VALID,0,VALID,100,VALID,-0.0169808,VALID,19.4557,VALID,41,VALID,0.973586,
2006-03-23, 00:49:00,VALID,915.489,VALID,0,VALID,100,VALID,0.0169808,VALID,18.9655,VALID,47,VALID,0.59484,
2006-03-23, 00:50:00,VALID,915.42,VALID,0,VALID,100,VALID,0,VALID,19.4377,VALID,102,VALID,1.09668,
2006-03-23, 00:51:00,VALID,915.394,VALID,0,VALID,100,VALID,0,VALID,18.4692,VALID,313,VALID,1.58274,
2006-03-23, 00:52:00,VALID,915.37,VALID,0,VALID,100,VALID,0.0339617,VALID,19.2226,VALID,262,VALID,1.3024,
2006-03-23, 00:53:00,VALID,915.339,VALID,0,VALID,100,VALID,0.0339617,VALID,20.2908,VALID,249,VALID,1.75137,
2006-03-23, 00:54:00,VALID,915.335,VALID,0,VALID,100,VALID,0.0169808,VALID,17.6327,VALID,242,VALID,2.12691,
2006-03-23, 00:55:00,VALID,915.308,VALID,0,VALID,100,VALID,-0.0339617,VALID,19.4637,VALID,275,VALID,1.59696,
2006-03-23, 00:56:00,VALID,915.259,VALID,0,VALID,100,VALID,-0.101885,VALID,19.7599,VALID,15,VALID,1.70332,
2006-03-23, 00:57:00,VALID,915.266,VALID,0,VALID,100,VALID,-0.0849042,VALID,18.6887,VALID,349,VALID,0.656994,
2006-03-23, 00:58:00,VALID,915.241,VALID,0,VALID,100,VALID,-0.0849042,VALID,20.2875,VALID,345,VALID,0.797991,
2006-03-23, 00:59:00,VALID,915.202,VALID,0,VALID,100,VALID,0.0169808,VALID,19.1442,VALID,29,VALID,1.31891,
2006-03-23, 01:00:00,VALID,915.221,VALID,0,VALID,100,VALID,0.0169808,VALID,18.6598,VALID,293,VALID,0.664825,
2006-03-23, 01:01:00,VALID,915.215,VALID,0,VALID,100,VALID,0.0509425,VALID,19.6676,VALID,112,VALID,0.71875,
2006-03-23, 01:02:00,VALID,915.157,VALID,0,VALID,100,VALID,0.0169808,VALID,19.7689,VALID,29,VALID,1.36151,
2006-03-23, 01:03:00,VALID,915.119,VALID,0,VALID,100,VALID,0.0339617,VALID,18.9666,VALID,2,VALID,0.861458,
2006-03-23, 01:04:00,VALID,915.085,VALID,0,VALID,100,VALID,0.0169808,VALID,18.6898,VALID,252,VALID,1.26035,
2006-03-23, 01:05:00,VALID,915.042,VALID,0,VALID,100,VALID,-0.0849042,VALID,18.7733,VALID,348,VALID,1.6492,
2006-03-23, 01:06:00,VALID,915.07,VALID,0,VALID,100,VALID,0,VALID,19.3288,VALID,16,VALID,1.5941,
2006-03-23, 01:07:00,VALID,915.039,VALID,0,VALID,100,VALID,-0.101885,VALID,19.1087,VALID,1,VALID,1.99291,
2006-03-23, 01:08:00,VALID,915.078,VALID,0,VALID,100,VALID,-0.0509425,VALID,19.8191,VALID,7,VALID,1.71057,
2006-03-23, 01:09:00,VALID,915.115,VALID,0,VALID,100,VALID,-0.0509425,VALID,18.9995,VALID,24,VALID,0.982469,
2006-03-23, 01:10:00,VALID,915.087,VALID,0.2,VALID,100,VALID,-0.0679233,VALID,19.6115,VALID,89,VALID,1.61217,
2006-03-23, 01:11:00,VALID,915.108,VALID,0.2,VALID,100,VALID,-0.0849042,VALID,18.4398,VALID,183,VALID,1.39955,
2006-03-23, 01:12:00,VALID,915.039,VALID,0.4,VALID,100,VALID,-0.0679233,VALID,19.358,VALID,179,VALID,1.10489,
2006-03-23, 01:13:00,VALID,914.924,VALID,0,VALID,100,VALID,-0.0169808,VALID,19.6052,VALID,124,VALID,1.12862,
2006-03-23, 01:14:00,VALID,914.868,VALID,0.2,VALID,100,VALID,-0.0169808,VALID,18.9842,VALID,21,VALID,1.12128,
2006-03-23, 01:15:00,VALID,914.815,VALID,0,VALID,100,VALID,-0.0169808,VALID,19.862,VALID,26,VALID,2.24316,
2006-03-23, 01:16:00,VALID,914.778,VALID,0,VALID,100,VALID,0,VALID,18.0857,VALID,16,VALID,2.33168,
2006-03-23, 01:17:00,VALID,914.724,VALID,0,VALID,100,VALID,-0.0169808,VALID,19.2058,VALID,13,VALID,2.35234,
2006-03-23, 01:18:00,VALID,914.781,VALID,0,VALID,100,VALID,0,VALID,19.0344,VALID,22,VALID,1.29457,
2006-03-23, 01:19:00,VALID,914.753,VALID,0.2,VALID,100,VALID,0,VALID,19.4223,VALID,20,VALID,1.16315,
2006-03-23, 01:20:00,VALID,914.771,VALID,0,VALID,100,VALID,0,VALID,20.6977,VALID,250,VALID,0.618963,
2006-03-23, 01:21:00,VALID,914.791,VALID,0,VALID,100,VALID,-0.0509425,VALID,20.2242,VALID,27,VALID,1.78108,
2006-03-23, 01:22:00,VALID,914.836,VALID,0,VALID,100,VALID,-0.0339617,VALID,19.4104,VALID,141,VALID,0.967014,
2006-03-23, 01:23:00,VALID,914.752,VALID,0.2,VALID,100,VALID,0,VALID,19.8842,VALID,46,VALID,1.41159,
2006-03-23, 01:24:00,VALID,914.686,VALID,0,VALID,100,VALID,-0.0169808,VALID,18.5768,VALID,6,VALID,1.69885,
2006-03-23, 01:25:00,VALID,914.705,VALID,0,VALID,100,VALID,-0.0339617,VALID,18.7357,VALID,38,VALID,2.54488,
2006-03-23, 01:26:00,VALID,914.724,VALID,0,VALID,100,VALID,-0.0169808,VALID,20.0611,VALID,32,VALID,1.85556,
2006-03-23, 01:27:00,VALID,914.704,VALID,0.2,VALID,100,VALID,-0.0339617,VALID,19.5503,VALID,27,VALID,3.13635,
2006-03-23, 01:28:00,VALID,914.67,VALID,0,VALID,100,VALID,-0.0169808,VALID,19.0985,VALID,24,VALID,2.627,
2006-03-23, 01:29:00,VALID,914.739,VALID,0.2,VALID,100,VALID,-0.0169808,VALID,19.3533,VALID,350,VALID,1.44798,
2006-03-23, 01:30:00,VALID,914.804,VALID,0,VALID,100,VALID,-0.0169808,VALID,19.371,VALID,179,VALID,1.41927,
2006-03-23, 01:31:00,VALID,914.783,VALID,0.2,VALID,100,VALID,-0.0339617,VALID,19.4214,VALID,98,VALID,1.55208,
2006-03-23, 01:32:00,VALID,914.747,VALID,0,VALID,100,VALID,-0.0169808,VALID,19.2145,VALID,97,VALID,2.30664,
2006-03-23, 01:33:00,VALID,914.812,VALID,0,VALID,100,VALID,-0.0339617,VALID,19.3618,VALID,9,VALID,1.99163,
2006-03-23, 01:34:00,VALID,914.814,VALID,0,VALID,100,VALID,-0.0169808,VALID,19.134,VALID,9,VALID,0.877907,
2006-03-23, 01:35:00,VALID,914.817,VALID,0.2,VALID,100,VALID,0,VALID,18.6192,VALID,237,VALID,0.775073,
2006-03-23, 01:36:00,VALID,914.71,VALID,0,VALID,100,VALID,-0.0339617,VALID,19.3399,VALID,337,VALID,2.23552,
2006-03-23, 01:37:00,VALID,914.755,VALID,0,VALID,100,VALID,-0.0339617,VALID,19.6351,VALID,301,VALID,2.5657,
2006-03-23, 01:38:00,VALID,914.714,VALID,0,VALID,100,VALID,-0.0679233,VALID,18.9193,VALID,16,VALID,3.37773,
2006-03-23, 01:39:00,VALID,914.766,VALID,0,VALID,100,VALID,-0.0849042,VALID,18.7565,VALID,272,VALID,0.936498,
2006-03-23, 01:40:00,VALID,914.754,VALID,0,VALID,100,VALID,-0.0339617,VALID,18.0744,VALID,24,VALID,2.13839,
2006-03-23, 01:41:00,VALID,914.707,VALID,0,VALID,100,VALID,-0.0339617,VALID,18.9643,VALID,327,VALID,2.68359,
2006-03-23, 01:42:00,VALID,914.685,VALID,0,VALID,100,VALID,-0.0849042,VALID,17.6681,VALID,12,VALID,2.27887,
2006-03-23, 01:43:00,VALID,914.701,VALID,0,VALID,100,VALID,-0.0679233,VALID,16.6811,VALID,21,VALID,2.16875,
2006-03-23, 01:44:00,VALID,914.676,VALID,0,VALID,100,VALID,-0.0339617,VALID,19.0766,VALID,17,VALID,2.72413,
2006-03-23, 01:45:00,VALID,914.721,VALID,0,VALID,100,VALID,-0.101885,VALID,20.2052,VALID,9,VALID,1.91406,
2006-03-23, 01:46:00,VALID,914.648,VALID,0,VALID,100,VALID,-0.0509425,VALID,19.3125,VALID,86,VALID,0.926054,
2006-03-23, 01:47:00,VALID,914.64,VALID,0,VALID,100,VALID,-0.0509425,VALID,19.5857,VALID,58,VALID,1.37791,
2006-03-23, 01:48:00,VALID,914.648,VALID,0,VALID,100,VALID,-0.0679233,VALID,19.4263,VALID,43,VALID,0.695676,
2006-03-23, 01:49:00,VALID,914.61,VALID,0,VALID,100,VALID,-0.0849042,VALID,18.6182,VALID,38,VALID,1.36033,
2006-03-23, 01:50:00,VALID,914.577,VALID,0,VALID,100,VALID,-0.0509425,VALID,19.6296,VALID,88,VALID,1.12972,
2006-03-23, 01:51:00,VALID,914.565,VALID,0,VALID,100,VALID,-0.0339617,VALID,18.9507,VALID,349,VALID,1.13145,
2006-03-23, 01:52:00,VALID,914.494,VALID,0,VALID,100,VALID,-0.0679233,VALID,19.4791,VALID,341,VALID,1.89648,
2006-03-23, 01:53:00,VALID,914.498,VALID,0,VALID,100,VALID,-0.0679233,VALID,19.5226,VALID,25,VALID,3.17462,
2006-03-23, 01:54:00,VALID,914.451,VALID,0,VALID,100,VALID,-0.0849042,VALID,19.2006,VALID,9,VALID,1.7832,
2006-03-23, 01:55:00,VALID,914.471,VALID,0,VALID,100,VALID,-0.0509425,VALID,19.5698,VALID,344,VALID,0.942708,
2006-03-23, 01:56:00,VALID,914.468,VALID,0,VALID,100,VALID,0,VALID,19.3055,VALID,80,VALID,1.07641,
2006-03-23, 01:57:00,VALID,914.43,VALID,0,VALID,100,VALID,-0.0679233,VALID,18.4092,VALID,26,VALID,1.21484,
2006-03-23, 01:58:00,VALID,914.396,VALID,0,VALID,100,VALID,0,VALID,18.162,VALID,16,VALID,1.00372,
2006-03-23, 01:59:00,VALID,914.313,VALID,0,VALID,100,VALID,-0.0849042,VALID,19.2629,VALID,21,VALID,1.8378,
2006-03-23, 02:00:00,VALID,914.302,VALID,0,VALID,100,VALID,0.0169808,VALID,19.9112,VALID,23,VALID,3.2411,
2006-03-23, 02:01:00,VALID,914.317,VALID,0,VALID,100,VALID,0.0679233,VALID,19.6295,VALID,28,VALID,2.06729,
2006-03-23, 02:02:00,VALID,914.297,VALID,0,VALID,100,VALID,0,VALID,18.8133,VALID,37,VALID,1.22173,
2006-03-23, 02:03:00,VALID,914.283,VALID,0,VALID,100,VALID,-0.0169808,VALID,18.8894,VALID,124,VALID,1.17297,
2006-03-23, 02:04:00,VALID,914.255,VALID,0,VALID,100,VALID,-0.0509425,VALID,18.7297,VALID,340,VALID,1.28735,
2006-03-23, 02:05:00,VALID,914.262,VALID,0,VALID,100,VALID,-0.0849042,VALID,18.8533,VALID,50,VALID,1.05238,
2006-03-23, 02:06:00,VALID,914.297,VALID,0,VALID,100,VALID,-0.101885,VALID,18.5846,VALID,148,VALID,0.770349,
2006-03-23, 02:07:00,VALID,914.234,VALID,0,VALID,100,VALID,-0.0679233,VALID,19.2003,VALID,50,VALID,1.81927,
2006-03-23, 02:08:00,VALID,914.262,VALID,0.2,VALID,100,VALID,-0.0169808,VALID,18.7795,VALID,119,VALID,1.2004,
2006-03-23, 02:09:00,VALID,914.265,VALID,0,VALID,100,VALID,-0.0679233,VALID,18.9306,VALID,211,VALID,1.13882,
2006-03-23, 02:10:00,VALID,914.251,VALID,0,VALID,100,VALID,-0.0679233,VALID,19.6659,VALID,122,VALID,1.00934,
2006-03-23, 02:11:00,VALID,914.257,VALID,0,VALID,100,VALID,-0.0679233,VALID,18.3825,VALID,333,VALID,1.03218,
2006-03-23, 02:12:00,VALID,914.178,VALID,0,VALID,100,VALID,-0.0849042,VALID,19.0204,VALID,31,VALID,1.74097,
2006-03-23, 02:13:00,VALID,914.183,VALID,0,VALID,100,VALID,-0.0679233,VALID,19.294,VALID,4,VALID,1.60334,
2006-03-23, 02:14:00,VALID,914.125,VALID,0,VALID,100,VALID,-0.0509425,VALID,19.3203,VALID,4,VALID,1.79585,
2006-03-23, 02:15:00,VALID,914.128,VALID,0,VALID,100,VALID,-0.0509425,VALID,19.3691,VALID,5,VALID,1.17543,
2006-03-23, 02:16:00,VALID,914.082,VALID,0,VALID,100,VALID,-0.0679233,VALID,19.5941,VALID,81,VALID,1.33352,
2006-03-23, 02:17:00,VALID,914.088,VALID,0,VALID,100,VALID,-0.0679233,VALID,19.2616,VALID,47,VALID,0.976381,
2006-03-23, 02:18:00,VALID,914.052,VALID,0,VALID,100,VALID,-0.0509425,VALID,18.9079,VALID,77,VALID,1.27663,
2006-03-23, 02:19:00,VALID,914.033,VALID,0,VALID,100,VALID,-0.0339617,VALID,18.2615,VALID,114,VALID,1.07069,
2006-03-23, 02:20:00,VALID,913.996,VALID,0,VALID,100,VALID,-0.0339617,VALID,19.6237,VALID,213,VALID,0.954578,
2006-03-23, 02:21:00,VALID,913.968,VALID,0,VALID,100,VALID,0.0169808,VALID,17.9212,VALID,117,VALID,0.843378,
2006-03-23, 02:22:00,VALID,913.982,VALID,0,VALID,100,VALID,0,VALID,17.6379,VALID,50,VALID,1.10901,
2006-03-23, 02:23:00,VALID,913.959,VALID,0,VALID,100,VALID,-0.0339617,VALID,18.7197,VALID,59,VALID,1.48011,
2006-03-23, 02:24:00,VALID,913.897,VALID,0,VALID,100,VALID,-0.0849042,VALID,19.3732,VALID,10,VALID,1.72154,
2006-03-23, 02:25:00,VALID,913.942,VALID,0,VALID,100,VALID,-0.0679233,VALID,19.0903,VALID,295,VALID,0.877046,
2006-03-23, 02:26:00,VALID,913.934,VALID,0,VALID,100,VALID,-0.0509425,VALID,18.8289,VALID,185,VALID,0.472656,
2006-03-23, 02:27:00,VALID,913.919,VALID,0,VALID,100,VALID,0,VALID,19.2209,VALID,75,VALID,0.725109,
2006-03-23, 02:28:00,VALID,913.914,VALID,0,VALID,100,VALID,-0.0679233,VALID,19.3156,VALID,357,VALID,1.1756,
2006-03-23, 02:29:00,VALID,913.906,VALID,0,VALID,100,VALID,-0.0509425,VALID,19.7432,VALID,187,VALID,0.36582,
2006-03-23, 02:30:00,VALID,913.914,VALID,0,VALID,100,VALID,-0.0679233,VALID,19.9573,VALID,106,VALID,0.743459,
2006-03-23, 02:31:00,VALID,913.88,VALID,0,VALID,100,VALID,0.0339617,VALID,18.8366,VALID,259,VALID,1.17369,
2006-03-23, 02:32:00,VALID,913.849,VALID,0,VALID,100,VALID,0.0169808,VALID,17.7708,VALID,258,VALID,1.54847,
2006-03-23, 02:33:00,VALID,913.823,VALID,0,VALID,100,VALID,0,VALID,19.6087,VALID,17,VALID,0.956395,
2006-03-23, 02:34:00,VALID,913.806,VALID,0,VALID,100,VALID,-0.0169808,VALID,18.8688,VALID,41,VALID,0.916667,
2006-03-23, 02:35:00,VALID,913.794,VALID,0,VALID,100,VALID,-0.101885,VALID,19.1174,VALID,227,VALID,0.377204,
2006-03-23, 02:36:00,VALID,913.759,VALID,0,VALID,100,VALID,-0.101885,VALID,18.7088,VALID,97,VALID,0.821456,
2006-03-23, 02:37:00,VALID,913.737,VALID,0,VALID,100,VALID,-0.0849042,VALID,18.731,VALID,20,VALID,0.885417,
2006-03-23, 02:38:00,VALID,913.685,VALID,0,VALID,100,VALID,-0.0849042,VALID,18.2428,VALID,82,VALID,0.777549,
2006-03-23, 02:39:00,VALID,913.663,VALID,0,VALID,100,VALID,-0.0339617,VALID,19.2265,VALID,86,VALID,1.57852,
2006-03-23, 02:40:00,VALID,913.626,VALID,0,VALID,100,VALID,-0.0679233,VALID,18.7575,VALID,343,VALID,2.05215,
2006-03-23, 02:41:00,VALID,913.63,VALID,0,VALID,100,VALID,-0.0849042,VALID,19.0241,VALID,335,VALID,0.890278,
2006-03-23, 02:42:00,VALID,913.628,VALID,0,VALID,100,VALID,-0.0679233,VALID,19.0598,VALID,47,VALID,0.37936,
2006-03-23, 02:43:00,VALID,913.63,VALID,0,VALID,100,VALID,0.0169808,VALID,18.5529,VALID,137,VALID,0.497997,
2006-03-23, 02:44:00,VALID,913.623,VALID,0,VALID,100,VALID,-0.0849042,VALID,19.627,VALID,167,VALID,0.206499,
2006-03-23, 02:45:00,VALID,913.614,VALID,0,VALID,100,VALID,-0.0849042,VALID,18.6513,VALID,38,VALID,0.857143,
2006-03-23, 02:46:00,VALID,913.617,VALID,0,VALID,100,VALID,-0.0509425,VALID,18.7437,VALID,16,VALID,0.264881,
2006-03-23, 02:47:00,VALID,913.578,VALID,0,VALID,100,VALID,0.0169808,VALID,19.1117,VALID,61,VALID,1.19241,
2006-03-23, 02:48:00,VALID,913.572,VALID,0,VALID,100,VALID,-0.0339617,VALID,18.7299,VALID,80,VALID,1.30629,
2006-03-23, 02:49:00,VALID,913.595,VALID,0,VALID,100,VALID,-0.0509425,VALID,18.8773,VALID,127,VALID,1.05069,
2006-03-23, 02:50:00,VALID,913.601,VALID,0.2,VALID,100,VALID,0,VALID,19.14,VALID,162,VALID,0.941584,
2006-03-23, 02:51:00,VALID,913.583,VALID,0.2,VALID,100,VALID,0.0169808,VALID,19.3083,VALID,137,VALID,1.05339,
2006-03-23, 02:52:00,VALID,913.595,VALID,0,VALID,100,VALID,0.0169808,VALID,18.7362,VALID,233,VALID,0.988636,
2006-03-23, 02:53:00,VALID,913.554,VALID,0.2,VALID,100,VALID,0.0169808,VALID,18.5556,VALID,324,VALID,1.5103,
2006-03-23, 02:54:00,VALID,913.59,VALID,0,VALID,100,VALID,-0.0849042,VALID,19.2737,VALID,335,VALID,0.967262,
2006-03-23, 02:55:00,VALID,913.605,VALID,0,VALID,100,VALID,-0.0679233,VALID,18.7475,VALID,255,VALID,1.31326,
2006-03-23, 02:56:00,VALID,913.562,VALID,0.2,VALID,100,VALID,-0.0679233,VALID,19.5957,VALID,85,VALID,1.75018,
2006-03-23, 02:57:00,VALID,913.58,VALID,0,VALID,100,VALID,-0.0169808,VALID,19.1014,VALID,292,VALID,2.24886,
2006-03-23, 02:58:00,VALID,913.633,VALID,0.2,VALID,100,VALID,-0.0679233,VALID,18.991,VALID,247,VALID,1.54315,
2006-03-23, 02:59:00,VALID,913.575,VALID,0,VALID,100,VALID,-0.0679233,VALID,19.1497,VALID,275,VALID,1.59394,
2006-03-23, 03:00:00,VALID,913.576,VALID,0,VALID,100,VALID,-0.0849042,VALID,19.2478,VALID,19,VALID,2.7358,
2006-03-23, 03:01:00,VALID,913.599,VALID,0.2,VALID,100,VALID,-0.0849042,VALID,18.2029,VALID,15,VALID,2.30602,
2006-03-23, 03:02:00,VALID,913.624,VALID,0,VALID,100,VALID,-0.0849042,VALID,19.8189,VALID,17,VALID,2.50705,
2006-03-23, 03:03:00,VALID,913.533,VALID,0,VALID,100,VALID,-0.0849042,VALID,17.5636,VALID,29,VALID,2.6439,
2006-03-23, 03:04:00,VALID,913.635,VALID,0.2,VALID,100,VALID,-0.0509425,VALID,19.5239,VALID,54,VALID,1.50707,
2006-03-23, 03:05:00,VALID,913.629,VALID,0,VALID,100,VALID,-0.101885,VALID,18.0006,VALID,94,VALID,1.58594,
2006-03-23, 03:06:00,VALID,913.677,VALID,0,VALID,100,VALID,-0.0679233,VALID,19.3713,VALID,78,VALID,1.02344,
2006-03-23, 03:07:00,VALID,913.681,VALID,0,VALID,100,VALID,0,VALID,18.3066,VALID,137,VALID,1.93461,
2006-03-23, 03:08:00,VALID,913.699,VALID,0,VALID,100,VALID,0.0679233,VALID,18.7347,VALID,8,VALID,2.07067,
2006-03-23, 03:09:00,VALID,913.717,VALID,0,VALID,100,VALID,-0.0169808,VALID,19.2189,VALID,201,VALID,1.85156,
2006-03-23, 03:10:00,VALID,913.696,VALID,0,VALID,100,VALID,0.0509425,VALID,19.2807,VALID,262,VALID,1.52453,
2006-03-23, 03:11:00,VALID,913.746,VALID,0,VALID,100,VALID,-0.0509425,VALID,19.1929,VALID,75,VALID,1.54261,
2006-03-23, 03:12:00,VALID,913.791,VALID,0,VALID,100,VALID,-0.0509425,VALID,18.4523,VALID,125,VALID,1.59097,
2006-03-23, 03:13:00,VALID,913.868,VALID,0,VALID,100,VALID,-0.0339617,VALID,18.9273,VALID,356,VALID,1.58848,
2006-03-23, 03:14:00,VALID,913.758,VALID,0,VALID,100,VALID,0.0169808,VALID,18.8611,VALID,312,VALID,2.5865,
2006-03-23, 03:15:00,VALID,913.769,VALID,0,VALID,100,VALID,0.0339617,VALID,18.0387,VALID,31,VALID,2.43694,
2006-03-23, 03:16:00,VALID,913.811,VALID,0,VALID,100,VALID,0.0169808,VALID,19.9408,VALID,340,VALID,2.68309,
2006-03-23, 03:17:00,VALID,913.803,VALID,0,VALID,100,VALID,-0.0679233,VALID,18.4018,VALID,229,VALID,2.20313,
2006-03-23, 03:18:00,VALID,913.751,VALID,0,VALID,100,VALID,-0.0849042,VALID,19.0768,VALID,72,VALID,2.07267,
2006-03-23, 03:19:00,VALID,913.811,VALID,0,VALID,100,VALID,-0.0509425,VALID,19.1142,VALID,202,VALID,0.859738,
2006-03-23, 03:20:00,VALID,913.797,VALID,0,VALID,100,VALID,0,VALID,19.3284,VALID,313,VALID,1.56789,
2006-03-23, 03:21:00,VALID,913.809,VALID,0,VALID,100,VALID,0.0169808,VALID,19.835,VALID,123,VALID,1.59748,
2006-03-23, 03:22:00,VALID,913.831,VALID,0.2,VALID,100,VALID,0,VALID,18.6233,VALID,66,VALID,0.984566,
2006-03-23, 03:23:00,VALID,913.802,VALID,0,VALID,100,VALID,0.0169808,VALID,18.3389,VALID,166,VALID,1.47266,
2006-03-23, 03:24:00,VALID,913.841,VALID,0,VALID,100,VALID,0.0169808,VALID,18.5776,VALID,75,VALID,1.09059,
2006-03-23, 03:25:00,VALID,913.813,VALID,0,VALID,100,VALID,0,VALID,18.787,VALID,30,VALID,1.61186,
2006-03-23, 03:26:00,VALID,913.807,VALID,0,VALID,100,VALID,-0.0169808,VALID,18.769,VALID,37,VALID,1.19895,
2006-03-23, 03:27:00,VALID,913.77,VALID,0,VALID,100,VALID,-0.0169808,VALID,18.9139,VALID,52,VALID,2.60247,
2006-03-23, 03:28:00,VALID,913.801,VALID,0,VALID,100,VALID,0,VALID,19.425,VALID,73,VALID,1.40445,
2006-03-23, 03:29:00,VALID,913.683,VALID,0,VALID,100,VALID,0,VALID,18.2548,VALID,336,VALID,2.70015,
2006-03-23, 03:30:00,VALID,913.684,VALID,0,VALID,100,VALID,0,VALID,19.6254,VALID,46,VALID,1.76758,
2006-03-23, 03:31:00,VALID,913.692,VALID,0,VALID,100,VALID,0.0169808,VALID,18.2309,VALID,353,VALID,1.89453,
2006-03-23, 03:32:00,VALID,913.7,VALID,0,VALID,100,VALID,0.0169808,VALID,18.6704,VALID,334,VALID,2.79746,
2006-03-23, 03:33:00,VALID,913.735,VALID,0,VALID,100,VALID,0,VALID,18.9358,VALID,345,VALID,2.05785,
2006-03-23, 03:34:00,VALID,913.778,VALID,0,VALID,100,VALID,-0.0169808,VALID,19.5312,VALID,305,VALID,1.34515,
2006-03-23, 03:35:00,VALID,913.781,VALID,0,VALID,100,VALID,-0.0339617,VALID,19.6168,VALID,240,VALID,1.02947,
2006-03-23, 03:36:00,VALID,913.796,VALID,0,VALID,100,VALID,-0.0679233,VALID,18.6585,VALID,35,VALID,0.862827,
2006-03-23, 03:37:00,VALID,913.79,VALID,0,VALID,100,VALID,0,VALID,18.6522,VALID,31,VALID,0.859375,
2006-03-23, 03:38:00,VALID,913.759,VALID,0,VALID,100,VALID,0,VALID,19.3999,VALID,66,VALID,1.09115,
2006-03-23, 03:39:00,VALID,913.791,VALID,0,VALID,100,VALID,-0.0509425,VALID,18.6304,VALID,187,VALID,1.30043,
2006-03-23, 03:40:00,VALID,913.842,VALID,0,VALID,100,VALID,0.0169808,VALID,19.7062,VALID,224,VALID,2.28675,
2006-03-23, 03:41:00,VALID,913.836,VALID,0,VALID,100,VALID,0,VALID,18.1426,VALID,251,VALID,1.15678,
2006-03-23, 03:42:00,VALID,913.857,VALID,0,VALID,100,VALID,0,VALID,17.4925,VALID,191,VALID,0.483526,